• In Lithuania
  • List of Countries
  • For 7 days
  • Water Temperature
  • Satellite Maps
  • Weather Map
  • Weather Widgets
  • user-avatar
    Login

    Hourly Weather Volostkiv

    Today, 26 September, Wednesday

    Time Temperature Precipitation Wind Pressure Humidity
    00:00 +4°C° 0 mm 3 mps 755 mmHg 72%
    01:00 +3°C° 0 mm 3 mps 755 mmHg 75%
    02:00 +3°C° 0 mm 2 mps 755 mmHg 81%
    03:00 +3°C° 0 mm 2 mps 756 mmHg 82%
    04:00 +2°C° 0 mm 2 mps 756 mmHg 84%
    05:00 +2°C° 0 mm 2 mps 756 mmHg 85%
    06:00 +3°C° 0 mm 2 mps 756 mmHg 82%
    07:00 +4°C° 0 mm 2 mps 756 mmHg 79%
    08:00 +5°C° 0 mm 2 mps 757 mmHg 76%
    09:00 +6°C° 0 mm 2 mps 757 mmHg 68%
    10:00 +8°C° 0 mm 3 mps 757 mmHg 60%
    11:00 +10°C° 0 mm 3 mps 756 mmHg 52%
    12:00 +11°C° 0 mm 3 mps 756 mmHg 49%
    13:00 +12°C° 0 mm 3 mps 756 mmHg 46%
    14:00 +13°C° 0 mm 3 mps 755 mmHg 42%
    15:00 +13°C° 0 mm 2 mps 754 mmHg 46%
    16:00 +13°C° 0 mm 2 mps 754 mmHg 50%
    17:00 +13°C° 0 mm 2 mps 753 mmHg 54%
    18:00 +12°C° 0 mm 2 mps 753 mmHg 55%
    19:00 +10°C° 0 mm 2 mps 753 mmHg 55%
    20:00 +9°C° 0 mm 3 mps 753 mmHg 55%
    21:00 +9°C° 0.1 mm 3 mps 753 mmHg 55%
    22:00 +8°C° 0.1 mm 4 mps 753 mmHg 55%
    23:00 +8°C° 0.1 mm 4 mps 752 mmHg 55%

    Tomorrow, 27 September, Thursday

    Time Temperature Precipitation Wind Pressure Humidity
    00:00 +8°C° 0.1 mm 4 mps 752 mmHg 56%
    01:00 +8°C° 0.1 mm 4 mps 752 mmHg 57%
    02:00 +8°C° 0.1 mm 5 mps 751 mmHg 59%
    03:00 +9°C° 0 mm 5 mps 751 mmHg 55%
    04:00 +9°C° 0 mm 5 mps 751 mmHg 52%
    05:00 +9°C° 0 mm 6 mps 750 mmHg 48%
    06:00 +9°C° 0 mm 6 mps 750 mmHg 49%
    07:00 +9°C° 0 mm 5 mps 750 mmHg 50%
    08:00 +9°C° 0 mm 5 mps 750 mmHg 51%
    09:00 +10°C° 0 mm 6 mps 750 mmHg 52%
    10:00 +10°C° 0 mm 6 mps 750 mmHg 54%
    11:00 +11°C° 0 mm 6 mps 750 mmHg 56%
    12:00 +11°C° 0 mm 6 mps 750 mmHg 56%
    13:00 +13°C° 0 mm 6 mps 750 mmHg 57%
    14:00 +14°C° 0 mm 6 mps 750 mmHg 58%
    15:00 +14°C° 0 mm 5 mps 749 mmHg 60%
    16:00 +15°C° 0 mm 5 mps 749 mmHg 62%
    17:00 +15°C° 0 mm 4 mps 749 mmHg 63%
    18:00 +13°C° 0 mm 4 mps 749 mmHg 64%
    19:00 +12°C° 0 mm 4 mps 749 mmHg 64%
    20:00 +11°C° 0 mm 4 mps 749 mmHg 64%
    21:00 +10°C° 0 mm 4 mps 748 mmHg 65%
    22:00 +10°C° 0 mm 4 mps 748 mmHg 65%
    23:00 +10°C° 0 mm 3 mps 748 mmHg 66%

    Day after tomorrow, 28 September, Friday

    Time Temperature Precipitation Wind Pressure Humidity
    00:00 +10°C° 0 mm 3 mps 748 mmHg 66%
    01:00 +10°C° 0 mm 3 mps 747 mmHg 67%
    02:00 +9°C° 0 mm 3 mps 747 mmHg 67%
    03:00 +9°C° 0 mm 3 mps 746 mmHg 67%
    04:00 +10°C° 0 mm 3 mps 746 mmHg 67%
    05:00 +10°C° 0 mm 3 mps 745 mmHg 67%
    06:00 +10°C° 0 mm 3 mps 745 mmHg 66%
    07:00 +11°C° 0 mm 4 mps 744 mmHg 64%
    08:00 +12°C° 0 mm 4 mps 744 mmHg 62%
    09:00 +14°C° 0 mm 4 mps 744 mmHg 59%
    10:00 +16°C° 0 mm 5 mps 744 mmHg 55%
    11:00 +19°C° 0 mm 5 mps 744 mmHg 51%
    12:00 +19°C° 0 mm 5 mps 743 mmHg 51%
    13:00 +20°C° 0 mm 5 mps 743 mmHg 51%
    14:00 +21°C° 0 mm 5 mps 742 mmHg 50%
    15:00 +20°C° 0 mm 4 mps 742 mmHg 54%
    16:00 +19°C° 0 mm 3 mps 742 mmHg 58%
    17:00 +19°C° 0 mm 3 mps 741 mmHg 62%
    18:00 +17°C° 0 mm 3 mps 742 mmHg 65%
    19:00 +16°C° 0 mm 2 mps 742 mmHg 68%
    20:00 +14°C° 0 mm 2 mps 742 mmHg 71%
    21:00 +13°C° 0 mm 2 mps 742 mmHg 76%
    22:00 +13°C° 0 mm 2 mps 743 mmHg 81%
    23:00 +12°C° 0 mm 2 mps 743 mmHg 86%

    29 September, Saturday

    Time Temperature Precipitation Wind Pressure Humidity
    00:00 +12°C° 0.1 mm 2 mps 743 mmHg 88%
    01:00 +12°C° 0.1 mm 1 mps 743 mmHg 90%
    02:00 +12°C° 0.1 mm 1 mps 743 mmHg 92%
    03:00 +12°C° 0.4 mm 2 mps 743 mmHg 91%
    04:00 +12°C° 0.4 mm 2 mps 743 mmHg 90%
    05:00 +10°C° 0.4 mm 2 mps 743 mmHg 88%
    06:00 +10°C° 0.6 mm 3 mps 743 mmHg 89%
    07:00 +10°C° 0.6 mm 3 mps 744 mmHg 89%
    08:00 +9°C° 0.6 mm 3 mps 744 mmHg 90%
    09:00 +9°C° 0.6 mm 3 mps 745 mmHg 88%
    10:00 +10°C° 0.6 mm 3 mps 745 mmHg 85%
    11:00 +10°C° 0.6 mm 3 mps 746 mmHg 83%
    12:00 +10°C° 0.3 mm 4 mps 746 mmHg 79%
    13:00 +11°C° 0.3 mm 4 mps 746 mmHg 76%
    14:00 +11°C° 0.3 mm 4 mps 746 mmHg 72%
    15:00 +11°C° 0.1 mm 4 mps 746 mmHg 70%
    16:00 +11°C° 0.1 mm 4 mps 747 mmHg 68%
    17:00 +11°C° 0.1 mm 3 mps 747 mmHg 66%
    18:00 +9°C° 0 mm 3 mps 747 mmHg 69%
    19:00 +8°C° 0 mm 3 mps 748 mmHg 71%
    20:00 +7°C° 0 mm 3 mps 748 mmHg 73%
    21:00 +6°C° 0 mm 2 mps 749 mmHg 75%
    22:00 +6°C° 0 mm 2 mps 749 mmHg 76%
    23:00 +5°C° 0 mm 2 mps 749 mmHg 78%

    30 September, Sunday

    Time Temperature Precipitation Wind Pressure Humidity
    00:00 +5°C° 0 mm 2 mps 750 mmHg 80%
    01:00 +4°C° 0 mm 2 mps 750 mmHg 81%
    02:00 +4°C° 0 mm 2 mps 750 mmHg 83%
    03:00 +4°C° 0 mm 2 mps 750 mmHg 84%
    04:00 +4°C° 0 mm 1 mps 750 mmHg 86%
    05:00 +4°C° 0 mm 1 mps 750 mmHg 87%
    06:00 +4°C° 0 mm 2 mps 750 mmHg 85%
    07:00 +4°C° 0 mm 2 mps 750 mmHg 83%
    08:00 +5°C° 0 mm 2 mps 750 mmHg 81%
    09:00 +7°C° 0 mm 2 mps 750 mmHg 73%
    10:00 +9°C° 0 mm 3 mps 750 mmHg 65%
    11:00 +11°C° 0 mm 4 mps 750 mmHg 58%
    12:00 +11°C° 0 mm 4 mps 749 mmHg 55%
    13:00 +12°C° 0 mm 4 mps 749 mmHg 52%
    14:00 +13°C° 0 mm 4 mps 748 mmHg 49%
    15:00 +12°C° 0 mm 3 mps 748 mmHg 53%
    16:00 +12°C° 0 mm 3 mps 747 mmHg 57%
    17:00 +12°C° 0 mm 3 mps 747 mmHg 61%
    18:00 +10°C° 0 mm 3 mps 747 mmHg 66%
    19:00 +8°C° 0 mm 3 mps 747 mmHg 71%
    20:00 +7°C° 0 mm 2 mps 747 mmHg 77%
    21:00 +6°C° 0 mm 2 mps 746 mmHg 79%
    22:00 +5°C° 0 mm 3 mps 746 mmHg 82%
    23:00 +5°C° 0 mm 3 mps 746 mmHg 85%

    1 October, Monday

    Time Temperature Precipitation Wind Pressure Humidity
    00:00 +5°C° 0 mm 3 mps 745 mmHg 86%
    01:00 +5°C° 0 mm 3 mps 745 mmHg 87%
    02:00 +5°C° 0 mm 3 mps 744 mmHg 88%
    03:00 +5°C° 0 mm 3 mps 744 mmHg 87%
    04:00 +5°C° 0 mm 3 mps 743 mmHg 87%
    05:00 +5°C° 0 mm 3 mps 743 mmHg 87%
    06:00 +5°C° 0 mm 3 mps 743 mmHg 84%
    07:00 +7°C° 0 mm 3 mps 743 mmHg 81%
    08:00 +8°C° 0 mm 3 mps 742 mmHg 77%
    09:00 +10°C° 0 mm 3 mps 742 mmHg 71%
    10:00 +13°C° 0 mm 3 mps 742 mmHg 65%
    11:00 +16°C° 0 mm 3 mps 741 mmHg 59%
    12:00 +17°C° 0 mm 3 mps 741 mmHg 57%
    13:00 +18°C° 0 mm 3 mps 740 mmHg 55%
    14:00 +18°C° 0 mm 3 mps 740 mmHg 54%
    15:00 +18°C° 0 mm 3 mps 739 mmHg 58%
    16:00 +17°C° 0 mm 3 mps 739 mmHg 63%
    17:00 +16°C° 0 mm 3 mps 739 mmHg 67%
    18:00 +14°C° 0 mm 3 mps 739 mmHg 70%
    19:00 +12°C° 0 mm 3 mps 739 mmHg 72%
    20:00 +11°C° 0 mm 3 mps 739 mmHg 74%
    21:00 +12°C° 0 mm 2 mps 739 mmHg 75%
    22:00 +12°C° 0 mm 2 mps 739 mmHg 77%
    23:00 +12°C° 0 mm 1 mps 739 mmHg 78%
    Show more